Location: Unspecified
(0.0000°N, 0.0000°E)
Time: 22:36:28
(UTC+00:00)

STARLINK-32264 - Visible Passes

Search period start: 20 June 2025 00:00
Search period end: 30 June 2025 00:00
Orbit: 482 x 484 km, 43.0° (Epoch: 20 June)

Date Brightness Start Highest point End Pass type
(mag) Time Alt. Az. Time Alt. Az. Time Alt. Az.
20 Jun 4.6 19:34:29 10° WSW 19:38:03 40° NW 19:41:09 13° NNE visible
21 Jun 4.6 19:06:43 10° WSW 19:10:19 42° NW 19:13:54 10° NNE visible
22 Jun 6.8 05:16:20 10° NNE 05:17:35 11° NE 05:18:51 10° ENE visible
22 Jun 4.6 18:38:58 10° WSW 18:42:35 44° NW 18:46:11 10° NNE visible
23 Jun 6.8 04:48:51 10° NNE 04:49:51 11° NE 04:50:52 10° ENE visible
24 Jun 6.8 04:21:27 10° NNE 04:22:07 10° NE 04:22:47 10° NE visible
25 Jun 3.5 05:29:33 10° WNW 05:33:13 51° SW 05:36:53 10° SSE visible
26 Jun 3.4 05:01:48 10° WNW 05:05:29 53° SW 05:09:10 10° SSE visible
27 Jun 3.4 04:38:00 55° SSW 04:38:00 55° SSW 04:41:28 10° SSE visible
